Погода в Дубках

Россия / Ярославская область     56°42′27″N   39°08′07″E
темп.,
°C
ветер,
м/с
пор.,
м/с
влажн.,
%
обл.,
%
осадки,
мм/ч
давл.,
гПа
погр.,
м
29 июля, чт
чт2900:00+17ю51186100 0.0 1010382
03:00+16юв41093100 0.1 1008436
06:00+16юв2596100 0.1 1007312
09:00+17ю1194100 0.1 1006268
12:00+20зсз237799 0.1 1006730
15:00+24зсз4557100 0.3 10051427
18:00+24з465432 0.1 1004980
21:00+20зюз467615 0.1 1004104
30 июля, пт
пт3000:00+17з3586100 0.1 100592
03:00+17з3889100 0.1 1005172
06:00+18з3782100 0.0 1005203
09:00+21зюз4669100 0.0 1005461
12:00+25юз456148 0.7 10041347
15:00+23зюз457296 3.2 1004861
18:00+22зюз478139 4.1 1004527
21:00+18зюз3588100 5.1 100476
31 июля, сб
сб3100:00+18зюз3388100 0.0 100461
03:00+17зюз3990100 0.0 1004197
06:00+16з4118428 0.0 1004310
09:00+22зюз711440 0.0 10041614
12:00+25зюз811340 0.0 10032059
15:00+26зюз9123570 0.0 10032460
18:00+24з712456 0.0 10052090
21:00+18зюз336518 0.0 100643
1 августа, вс
вс100:00+16зюз49780 0.0 1007154
03:00+15зюз3884100 0.0 1009149
06:00+17юз3577100 0.0 1009149
09:00+22ююз4754100 0.0 1008518
12:00+17ю3583100 1.4 1009205
15:00+19юз7138732 4.6 1008777
18:00+23зюз6970100 0.1 10071069
21:00+17зюз3397100 1.4 100851
2 августа, пн
пн200:00+17юз2294100 0.3 100826
03:00+16юз359484 0.3 100981
06:00+17юз369499 0.0 1009159
09:00+22юз34645 0.0 1008418
12:00+27ююз45405 0.0 10071798
15:00+29ю4635100 0.0 10052115
18:00+25в3463100 0.9 100270
21:00+18ю3692100 6.1 1002111